Weather History for West Palm Beach, FL

Change the Weather History Date:

Monday, January 21, 2013

  Actual Average Record
Temperature  
Mean Temperature 73 °F 66 °F  
Max Temperature 80 °F 75 °F 86 °F (1990)
Min Temperature 65 °F 57 °F 32 °F (1985)
Degree Days  
Heating Degree Days 0 3  
Month to date heating degree days 3 63  
Since 1 July heating degree days 46 134  
Cooling Degree Days 8 3  
Month to date cooling degree days 175 70  
Year to date cooling degree days 175 70  
Growing Degree Days 22 (Base 50)    
Moisture  
Dew Point 66 °F    
Average Humidity 84    
Maximum Humidity 100    
Minimum Humidity 67    
Precipitation  
Precipitation 0.06 in 0.10 in 6.29 in (1957)
Month to date precipitation 0.76 2.19  
Year to date precipitation 0.76 2.19  
Snow  
Snow 0.00 in - - ()
Month to date snowfall 0.0  
Since 1 July snowfall 0.0  
Snow Depth 0.00 in    
Sea Level Pressure  
Sea Level Pressure 30.02 in    
Wind  
Wind Speed 6 mph (SE)    
Max Wind Speed 15 mph    
Max Gust Speed 21 mph    
Visibility 10 miles    
Events Rain    
T = Trace of Precipitation, MM = Missing Value Source: NWS Daily Summary

Daily Weather History Graph

Daily Weather History Graph

Search for Another Location

Airport:

Trip Planner

Search our weather history database for the weather conditions in past years. The results will help you decide how hot, cold, wet, or windy it might be!

Date:

Astronomy

Jan. 21, 2013 Rise Set
Actual Time 7:09 AM EST 5:54 PM EST
Civil Twilight 6:44 AM EST 6:19 PM EST
Nautical Twilight 6:16 AM EST 6:47 PM EST
Astronomical Twilight 5:48 AM EST 7:15 PM EST
Moon 1:35 PM EST (1/21) 2:35 AM EST (1/21)
Length of Visible Light 11h 34m
Length of Day
10h 45m
Waxing Gibbous, 75% of the Moon is Illuminated
Jan 21
Waxing Gibbous
Jan 26
Full
Feb 3
Last Quarter
Feb 10
New
Feb 17
First Quarter

Hourly Weather History & Observations

Time (EST) Temp. Heat Index Dew Point Humidity Pressure Visibility Wind Dir Wind Speed Gust Speed Precip Events Conditions
12:08 AM 73.4 °F - 64.4 °F 73% 30.05 in 10.0 mi East 9.2 mph - 0.00 in Rain Light Rain
12:53 AM 71.1 °F - 66.0 °F 84% 30.05 in 8.0 mi Calm Calm - 0.05 in Rain Light Rain
1:18 AM 69.8 °F - 66.2 °F 88% 30.05 in 10.0 mi South 4.6 mph - 0.00 in   Overcast
1:53 AM 68.0 °F - 64.9 °F 90% 30.04 in 10.0 mi Calm Calm - 0.00 in   Mostly Cloudy
2:03 AM 68.0 °F - 64.4 °F 88% 30.04 in 10.0 mi Calm Calm - N/A   Mostly Cloudy
2:53 AM 68.0 °F - 66.0 °F 93% 30.03 in 10.0 mi North 3.5 mph - N/A   Mostly Cloudy
3:53 AM 66.9 °F - 64.9 °F 93% 30.03 in 10.0 mi Calm Calm - N/A   Mostly Cloudy
4:53 AM 64.9 °F - 64.0 °F 97% 30.01 in 10.0 mi Calm Calm - N/A   Scattered Clouds
5:53 AM 66.9 °F - 64.9 °F 93% 30.01 in 10.0 mi East 3.5 mph - N/A   Mostly Cloudy
6:53 AM 66.9 °F - 64.9 °F 93% 30.02 in 10.0 mi Calm Calm - N/A   Mostly Cloudy
7:53 AM 70.0 °F - 66.9 °F 90% 30.04 in 10.0 mi Calm Calm - N/A   Mostly Cloudy
8:53 AM 73.9 °F - 66.0 °F 76% 30.06 in 10.0 mi East 6.9 mph - N/A   Mostly Cloudy
9:53 AM 75.9 °F - 66.0 °F 71% 30.07 in 10.0 mi ESE 9.2 mph - N/A   Mostly Cloudy
10:53 AM 75.9 °F - 66.0 °F 71% 30.06 in 10.0 mi SE 5.8 mph - N/A   Mostly Cloudy
11:02 AM 77.0 °F - 66.2 °F 69% 30.06 in 10.0 mi SE 9.2 mph - N/A   Mostly Cloudy
11:53 AM 79.0 °F - 66.0 °F 64% 30.04 in 10.0 mi ESE 10.4 mph - N/A   Overcast
12:53 PM 77.0 °F - 66.0 °F 69% 30.01 in 10.0 mi ESE 9.2 mph - N/A   Mostly Cloudy
1:30 PM 80.6 °F 82.7 °F 66.2 °F 61% 29.99 in 10.0 mi SSE 10.4 mph - N/A   Mostly Cloudy
1:53 PM 79.0 °F - 66.9 °F 66% 29.99 in 10.0 mi South 12.7 mph - N/A   Mostly Cloudy
2:53 PM 79.0 °F - 68.0 °F 69% 29.96 in 10.0 mi SSE 10.4 mph - N/A   Overcast
3:53 PM 75.9 °F - 68.0 °F 76% 29.96 in 10.0 mi SSE 12.7 mph - 0.00 in Rain Light Rain
4:53 PM 75.0 °F - 69.1 °F 82% 29.97 in 10.0 mi Variable 3.5 mph - 0.01 in   Mostly Cloudy
5:53 PM 75.0 °F - 68.0 °F 79% 29.98 in 10.0 mi West 3.5 mph - N/A   Mostly Cloudy
6:53 PM 73.0 °F - 66.0 °F 79% 29.99 in 10.0 mi NW 8.1 mph - N/A   Overcast
7:53 PM 71.1 °F - 64.9 °F 81% 30.01 in 10.0 mi NW 6.9 mph - 0.00 in   Mostly Cloudy
8:53 PM 69.1 °F - 64.9 °F 87% 30.01 in 10.0 mi NW 4.6 mph - N/A   Scattered Clouds
9:53 PM 66.9 °F - 64.0 °F 90% 30.02 in 10.0 mi NW 9.2 mph - N/A   Scattered Clouds
9:57 PM 66.2 °F - 64.4 °F 94% 30.02 in 10.0 mi NW 9.2 mph - N/A   Mostly Cloudy
10:53 PM 66.0 °F - 64.0 °F 93% 30.04 in 10.0 mi NW 4.6 mph - N/A   Mostly Cloudy
10:59 PM 66.2 °F - 64.4 °F 94% 30.03 in 10.0 mi NW 4.6 mph - N/A   Scattered Clouds
11:53 PM 64.9 °F - 63.0 °F 93% 30.03 in 10.0 mi WNW 4.6 mph - N/A   Mostly Cloudy